Miscellaneous Local Product
Issued by NWS North Platte, NE

Home | Current Version | Previous Version | Graphics & Text | Print | Product List | Glossary On
Versions: 1 2 3 4 5 6 7 8 9 10 11 12 13 14 15 16 17 18 19 20 21 22 23 24 25 26 27 28 29 30 31 32 33 34 35 36 37 38 39 40 41 42 43 44 45 46 47 48 49 50
000
AXUS43 KLBF 021110
MISLBF


WESTERN AND NORTH CENTRAL NEBRASKA HOURLY WEATHER ROUNDUP
NATIONAL WEATHER SERVICE NORTH PLATTE NE
600 AM CDT WED SEP 02 2015

NOTE: "FAIR" INDICATES FEW OR NO CLOUDS BELOW 12,000 FEET WITH NO
SIGNIFICANT WEATHER AND/OR OBSTRUCTIONS TO VISIBILITY.

NOTE: STATIONS NOT REPORTING VARIABLES SUCH AS SKY/WEATHER OR
PRESSURE ARE PROVIDED BY THE NEBRASKA DEPARTMENT OF
ROADS...RAWS...AND APRS NETWORKS...AND ARE NOT UNDER
NATIONAL WEATHER SERVICE QUALITY CONTROL.

...OBSERVATIONS IN AND NEAR THE EASTERN PANHANDLE OF NEBRASKA...

CITY           SKY/WX    TMP DP  RH WIND       PRES   REMARKS
PINE RIDGE     PTCLDY    60  46  59 W6        29.88S
CHADRON        MOCLDY    56  46  69 SW7       29.89R
ALLIANCE       PTCLDY    54  46  74 CALM      29.95R
SIDNEY         PTCLDY    60  43  53 NW7       29.99S
CRESCENT LAKE    N/A     63  41  43 NW3         N/A
BIG SPRINGS      N/A     58  53  85 CALM        N/A
$$

...OBSERVATIONS IN NORTH CENTRAL NEBRASKA...

CITY           SKY/WX    TMP DP  RH WIND       PRES   REMARKS
VALENTINE      CLEAR     58  56  93 W6        29.85S
THEDFORD       CLEAR     64  59  85 SW6       29.88F
AINSWORTH      CLEAR     67  62  84 SW5       29.85S
O`NEILL        CLEAR     65  64  96 S6        29.85S
ORD            CLEAR     60  59  96 CALM      29.85S
BROKEN BOW     CLEAR     61  58  90 CALM      29.88F
SPRINGVIEW       N/A     60  58  95 CALM        N/A
SARGENT          N/A     63  61  93 CALM        N/A
CHAMBERS         N/A     66  63  89 S3          N/A
EWING            N/A     67  60  77 CALM        N/A
$$

...OBSERVATIONS IN SOUTHWEST NEBRASKA AND FAR NORTHEAST COLORADO...

CITY           SKY/WX    TMP DP  RH WIND       PRES   REMARKS
WRAY           CLOUDY    61  54  75 W8        29.96S
HOLYOKE        FAIR      61  54  77 W6        29.95S
IMPERIAL       CLEAR     62  56  80 CALM      29.92F
OGALLALA       CLEAR     57  55  93 W6        29.93S
NORTH PLATTE   CLEAR     60  58  92 SE3       29.90F
MCCOOK         CLEAR     60  57  89 S3        29.90S
LEXINGTON      CLEAR     62  59  92 CALM      29.89S
PAXTON           N/A     59  55  88 CALM        N/A
BRADY            N/A     62  59  90 CALM        N/A
CALLAWAY         N/A     61  59  94 SE3         N/A
$$

...OBSERVATIONS IN CENTRAL LINCOLN COUNTY AREA...

CITY           SKY/WX    TMP DP  RH WIND       PRES   REMARKS
N.P. AIRPORT   CLEAR     60  58  92 SE3       29.90F
N.P. DOWNTOWN    N/A     66  61  83 CALM        N/A
N.P. SOUTHEAST   N/A     64  60  86 CALM        N/A
N.P. HILLCREST   N/A     65  61  86 SE3         N/A
$$

...SOME OBSERVATIONS FROM AROUND THE REGION...

CITY           SKY/WX    TMP DP  RH WIND       PRES   REMARKS
DENVER         MOCLDY    65  45  48 SW8       30.07S
LARAMIE        CLEAR     52  41  66 SW7       30.23R
CHEYENNE       PTCLDY    65  40  39 W12       30.11S
SCOTTSBLUFF    PTCLDY    56  50  80 N5        29.97S
RAPID CITY     PTCLDY    60  47  61 NW5       29.85S
PIERRE         FOG       58  58 100 CALM      29.76F VSB 1/4
WINNER         FAIR      69  60  73 E3        29.80F
SIOUX FALLS    CLEAR     68  65  90 E7        29.86R
OMAHA          PTCLDY    74  69  85 S9        29.90S
GRAND ISLAND   CLEAR     69  62  78 S6        29.88S
KANSAS CITY    CLOUDY    74  65  73 S10       30.00R
WICHITA        MOCLDY    72  63  73 S10       29.99R
HAYS           CLEAR     73  55  53 S13       29.92F
LIBERAL        PTCLDY    72  54  53 S13       30.00S
GOODLAND       CLEAR     65  56  72 SW7       29.97S
$$



USA.gov is the U.S. government's official web portal to all federal, state and local government web resources and services.